[[{"header":{"parameterUnit":"m.s-1","parameterCategory":1,"la1":30.2992,"la2":30.254,"lo1":-89.0895,"lo2":-89.0443,"dy":0.0025,"dx":0.0025,"nx":19,"ny":19,"refTime":"2026-05-04T21:00:00:Z","depth":0,"parameterNumber":2,"parameterNumberName":"U-component_of_WINDS"},"data":[0,0,0,-1.9659,-1.9659,-1.9667,-1.9667,-1.9675,-1.9676,0,0,0,0,0,0,0,0,0,0,0,-1.9656,-1.9656,-1.9659,-1.9659,-1.9667,-1.9667,-1.9675,-1.9676,0,0,0,0,0,0,0,0,0,0,0,-1.9656,-1.9656,-1.9656,-1.9659,-1.9667,-1.9667,-1.9675,-1.967,0,0,0,0,0,0,0,0,0,0,-1.9662,-1.966,-1.9656,-1.9656,-1.9659,-1.9667,-1.9667,-1.967,-1.967,-1.9671,0,-1.9673,0,-1.9674,-1.9676,-1.9676,0,0,0,-1.9659,-1.9659,-1.9662,-1.9656,-1.9659,-1.9667,-1.9663,-1.967,-1.9671,-1.9672,-1.9673,-1.9673,-1.9675,-1.9676,-1.9676,-1.9684,-1.9684,0,0,-1.9658,-1.9657,-1.9661,-1.9662,-1.9661,-1.9663,-1.9663,-1.967,-1.9671,-1.9673,-1.9674,-1.9675,-1.9676,-1.9676,-1.9684,-1.9684,0,0,0,-1.9657,-1.9657,-1.9659,-1.9662,-1.9663,-1.9663,-1.9664,-1.9671,-1.9672,-1.9674,-1.9675,-1.9676,-1.9676,-1.9684,-1.9684,-1.9684,0,0,0,-1.9657,-1.9656,-1.9659,-1.9658,-1.9663,-1.9667,-1.9664,-1.9671,-1.9672,-1.9675,-1.9676,-1.9676,-1.9684,-1.9684,-1.9684,-1.9684,0,0,0,-1.9655,-1.9656,-1.9657,-1.9658,-1.9661,-1.9667,-1.9668,-1.9671,-1.9673,-1.9676,-1.9676,-1.9684,-1.9684,-1.9684,-1.9684,-1.9685,0,0,0,-1.9653,-1.9657,-1.9657,-1.9661,-1.9661,-1.9667,-1.9668,-1.9673,-1.9676,-1.9676,-1.9684,-1.9684,-1.9684,-1.9684,-1.9685,-1.9686,-1.9687,0,0,-1.9657,-1.9657,-1.966,-1.966,-1.9666,-1.9666,-1.9672,-1.9676,-1.9677,-1.9681,-1.9681,-1.9684,-1.9684,-1.9685,-1.9689,-1.969,0,0,0,-1.9661,-1.9662,-1.9664,-1.9667,-1.967,-1.9673,-1.9676,-1.9678,-1.9681,-1.9679,-1.9685,-1.9685,-1.9686,-1.9686,-1.9687,-1.9687,-1.9684,-1.9684,-1.9684,-1.9664,-1.9665,-1.967,-1.9672,-1.9675,-1.9678,-1.968,-1.9682,-1.9683,-1.9685,-1.9686,-1.9688,-1.9689,-1.9689,-1.9689,-1.9687,-1.9687,-1.9687,-1.9687,-1.9669,-1.9672,-1.9672,-1.9677,-1.9678,-1.9682,-1.9684,-1.9685,-1.9688,-1.9687,-1.9688,-1.9687,-1.9689,-1.969,-1.9687,-1.9687,-1.9687,-1.9687,-1.9687,-1.9671,-1.9673,-1.9674,-1.9678,-1.9681,-1.9683,-1.9686,-1.9687,-1.9688,-1.9689,-1.969,-1.969,-1.969,-1.969,-1.969,-1.969,-1.969,-1.969,-1.969,-1.9672,-1.9674,-1.9677,-1.968,-1.9682,-1.9684,-1.9687,-1.9689,-1.9691,-1.9691,-1.9691,-1.9692,-1.9689,-1.9688,-1.969,-1.969,-1.969,-1.969,-1.969,-1.9677,-1.9676,-1.968,-1.9681,-1.9685,-1.9687,-1.9689,-1.9692,-1.9693,-1.9695,-1.9695,-1.9693,-1.9693,-1.9693,-1.9692,-1.9695,-1.9695,-1.9695,-1.9695,-1.9678,-1.9679,-1.9682,-1.9685,-1.9688,-1.9689,-1.9693,-1.9695,-1.9696,-1.9697,-1.9697,-1.9696,-1.9696,-1.9696,-1.9696,-1.9696,-1.9699,-1.9699,-1.9699,-1.9681,-1.9681,-1.9684,-1.9686,-1.9689,-1.9691,-1.9694,-1.9697,-1.9699,-1.9699,-1.9698,-1.9698,-1.9696,-1.9696,-1.9696,-1.9696,-1.9695,0,0]},{"header":{"parameterUnit":"m.s-1","parameterCategory":1,"la1":30.2992,"la2":30.254,"lo1":-89.0895,"lo2":-89.0443,"dy":0.0025,"dx":0.0025,"nx":19,"ny":19,"refTime":"2026-05-04T21:00:00:Z","depth":0,"parameterNumber":3,"parameterNumberName":"V-component_of_WINDS"},"data":[0,0,0,4.3828,4.3828,4.3842,4.3842,4.3863,4.3863,0,0,0,0,0,0,0,0,0,0,0,4.3825,4.3825,4.3828,4.3828,4.3842,4.3842,4.3863,4.3863,0,0,0,0,0,0,0,0,0,0,0,4.3824,4.3825,4.3825,4.3828,4.3842,4.3842,4.3863,4.3851,0,0,0,0,0,0,0,0,0,0,4.3837,4.3835,4.3825,4.3825,4.3828,4.3842,4.3842,4.3851,4.3852,4.3858,0,4.3863,0,4.3864,4.3865,4.3865,0,0,0,4.3827,4.3834,4.3837,4.3825,4.3828,4.3842,4.3835,4.3851,4.3853,4.386,4.3863,4.3864,4.3864,4.3865,4.3865,4.3906,4.3906,0,0,4.3826,4.3827,4.3836,4.3838,4.3836,4.3835,4.3836,4.3852,4.3856,4.3863,4.3864,4.3864,4.3865,4.3865,4.3905,4.3906,0,0,0,4.3825,4.3827,4.3829,4.3837,4.384,4.3835,4.3836,4.3855,4.3856,4.3864,4.3865,4.3865,4.3866,4.3905,4.3906,4.392,0,0,0,4.3824,4.3826,4.3829,4.383,4.384,4.3847,4.3839,4.3855,4.3857,4.3864,4.3865,4.3866,4.3905,4.3905,4.3919,4.3926,0,0,0,4.3823,4.3826,4.3828,4.383,4.3836,4.3847,4.3849,4.3855,4.3857,4.3865,4.3866,4.3905,4.3905,4.3918,4.3924,4.3939,0,0,0,4.3822,4.3837,4.3828,4.3847,4.3836,4.3856,4.3849,4.3863,4.3872,4.3865,4.3905,4.3905,4.3918,4.3924,4.3938,4.3952,4.3958,0,0,4.3842,4.384,4.3851,4.3843,4.3866,4.3854,4.3879,4.3884,4.3883,4.3899,4.39,4.3919,4.3924,4.3939,4.3989,4.3993,0,0,0,4.3857,4.3865,4.3871,4.3881,4.3888,4.3896,4.3898,4.3902,4.3915,4.3891,4.3928,4.3931,4.394,4.3946,4.395,4.3959,4.3908,4.3908,4.3908,4.3884,4.3887,4.3906,4.3911,4.3921,4.3927,4.3936,4.3942,4.3936,4.3946,4.395,4.398,4.3988,4.3991,4.4,4.3957,4.3957,4.3957,4.3957,4.3915,4.3928,4.3928,4.3946,4.3949,4.3965,4.3974,4.3972,4.3988,4.3975,4.3983,4.397,4.3996,4.4004,4.3958,4.3958,4.3958,4.3958,4.3958,4.3933,4.394,4.3946,4.3965,4.398,4.3985,4.4003,4.4004,4.4004,4.4012,4.4019,4.4019,4.402,4.4016,4.4016,4.4016,4.4016,4.4016,4.4016,4.3949,4.3956,4.3971,4.3985,4.3995,4.4008,4.402,4.4029,4.4041,4.404,4.404,4.4037,4.3998,4.3989,4.4018,4.4018,4.4017,4.4017,4.4017,4.3978,4.3973,4.3996,4.4007,4.4027,4.4045,4.4049,4.407,4.4078,4.4088,4.4085,4.4056,4.4053,4.405,4.4042,4.4083,4.4083,4.4083,4.4083,4.3993,4.3994,4.4021,4.4039,4.4057,4.4065,4.4094,4.4106,4.4116,4.4123,4.4118,4.4108,4.4105,4.4104,4.4099,4.4092,4.4145,4.4145,4.4145,4.4013,4.4016,4.404,4.4053,4.4071,4.4087,4.4116,4.4138,4.4149,4.4148,4.4129,4.4126,4.411,4.4105,4.41,4.4093,4.408,0,0]}]]